Simultaneous Nadir Overpasses (SNOs) Predictions

Prediction of SNOs between GOES-15 and LANDSAT-8 Satellite Orbit:

Table of predicted SNOs for the next 14.0 days since TLE Epoch: 6/25/2022
Index Date Time (GOES-15) GOES-15 Lat,Lon LANDSAT-8 Lat,Lon Distance(km) Time Diff (sec)
1 06/26/2022 06:48:49 0.15,-128.46 0.09,-128.77 35.46 80
2 06/28/2022 06:33:58 0.16,-128.46 0.72,-125.81 301.22 80
3 06/28/2022 18:57:53 -0.13,-128.50 0.41,-130.96 280.70 80
4 06/30/2022 18:43:02 -0.15,-128.50 -0.23,-128.00 55.50 80
5 07/02/2022 18:30:51 -0.16,-128.49 -0.87,-125.05 391.32 80
6 07/03/2022 06:54:55 0.13,-128.46 -0.25,-130.24 201.58 80
7 07/05/2022 06:40:04 0.14,-128.46 0.41,-127.28 133.89 80
8 07/05/2022 19:03:59 -0.10,-128.48 0.72,-132.43 448.74 80
9 07/07/2022 06:27:52 0.15,-128.45 1.01,-124.32 469.12 80
10 07/07/2022 18:51:47 -0.11,-128.47 0.12,-129.46 113.58 80
